FW4601 Weather Reports


time (UTC)temp
C
wind
direction
speed
KPH
gust
KPH
rain 1hr
cm
rain 24hr
cm
rain mn
cm
humidity
%
barometer
mb
20260509113055 -1 270 0.0 0.0 0.00 0.00 0.00 87 1022.8
20260509111544 0 270 0.0 0.0 0.00 0.00 0.00 86 1022.7
20260509110041 0 270 0.0 0.0 0.00 0.00 0.00 87 1022.6
20260509104540 0 270 0.0 0.0 0.00 0.00 0.00 86 1022.6
20260509103044 0 270 0.0 0.0 0.00 0.00 0.00 85 1022.6
20260509101550 0 270 0.0 0.0 0.00 0.00 0.00 84 1022.5
20260509100033 1 270 0.0 0.0 0.00 0.00 0.00 83 1022.5
20260509094533 1 270 0.0 0.0 0.00 0.00 0.00 84 1022.5
20260509093028 1 270 0.0 0.0 0.00 0.00 0.00 83 1022.4
20260509091526 2 270 0.0 0.0 0.00 0.00 0.00 83 1022.4
20260509090035 2 270 0.0 0.0 0.00 0.00 0.00 81 1022.4
20260509084522 2 270 0.0 0.0 0.00 0.00 0.00 79 1022.4
20260509083032 3 270 0.0 0.0 0.00 0.00 0.00 80 1022.5
20260509081518 3 270 0.0 0.0 0.00 0.00 0.00 80 1022.5
20260509080017 3 270 0.0 0.0 0.00 0.00 0.00 79 1022.4
20260509074513 3 270 0.0 0.0 0.00 0.00 0.00 78 1022.2
20260509073022 3 270 0.0 0.0 0.00 0.00 0.00 76 1022.1
20260509071511 3 270 0.0 0.0 0.00 0.00 0.00 76 1022.1
20260509070008 4 270 0.0 0.0 0.00 0.00 0.00 74 1022.0
20260509064505 4 270 0.0 0.0 0.00 0.00 0.00 73 1022.0
20260509063003 5 270 0.0 0.0 0.00 0.00 0.00 73 1021.8
20260509061600 5 270 0.0 0.0 0.00 0.00 0.00 71 1021.7
20260509060108 6 270 0.0 0.0 0.00 0.00 0.00 70 1021.4
20260509054553 6 270 0.0 0.0 0.00 0.00 0.00 68 1021.4
20260509053111 7 270 0.0 0.0 0.00 0.00 0.00 66 1021.2
20260509051551 7 270 0.0 0.0 0.00 0.00 0.00 65 1021.2
20260509050043 8 270 0.0 0.0 0.00 0.00 0.00 62 1021.0
20260509044550 9 270 0.0 0.0 0.00 0.00 0.00 61 1020.9
20260509043036 10 270 0.0 0.0 0.00 0.00 0.00 58 1020.9
20260509041530 11 270 0.0 0.0 0.00 0.00 0.00 55 1020.6
20260509040031 12 270 0.0 0.0 0.00 0.00 0.00 54 1020.6
20260509034524 12 270 0.0 0.0 0.00 0.00 0.00 51 1020.5
20260509033020 13 270 0.0 4.8 0.00 0.00 0.00 50 1020.3
20260509031517 13 272 0.0 3.2 0.00 0.00 0.00 49 1020.5
20260509030028 14 273 0.0 6.4 0.00 0.00 0.00 47 1020.1
20260509024513 15 275 0.0 6.4 0.00 0.00 0.00 46 1019.8
20260509023009 15 265 1.6 12.9 0.00 0.00 0.00 45 1019.5
20260509021505 16 211 1.6 6.4 0.00 0.00 0.00 43 1019.6
20260509020108 17 211 0.0 4.8 0.00 0.00 0.00 40 1019.6
20260509014557 17 211 1.6 6.4 0.00 0.00 0.00 38 1019.4
20260509013059 17 207 0.0 17.7 0.00 0.00 0.00 35 1019.2
20260509011557 18 325 0.0 6.4 0.00 0.00 0.00 36 1019.2
20260509010051 18 325 1.6 8.0 0.00 0.00 0.00 34 1019.4
20260509004557 18 321 1.6 12.9 0.00 0.00 0.00 34 1019.2
20260509003053 18 320 0.0 6.4 0.00 0.00 0.00 37 1019.1
20260509001545 18 322 0.0 14.5 0.00 0.00 0.00 35 1019.1
20260509000042 19 339 1.6 12.9 0.00 0.00 0.00 37 1018.9
20260508234517 20 294 4.8 12.9 0.00 0.00 0.00 37 1019.0